162P/Siding Spring (2020)

Japanese version
Home page
Updated on May 17, 2020

---------------------------------------------------------------------

* Profile

* Orbital Elements

Epoch 2020 Dec. 17.0 TT = JDT 2459200.5
T 2020 Dec. 7.81985 TT                                  Rudenko
q   1.2891351            (2000.0)            P               Q
n   0.18141177     Peri.  357.13422     +0.87966236     -0.41197195
a   3.0904786      Node    30.91114     +0.44503695     +0.53678731
e   0.5828688      Incl.   27.55497     +0.16773862     +0.73630054
P   5.43
From 2095 observations 1990 Mar. 23-2020 Mar. 19, mean residual 0".8.

* Finding Charts

* Magnitudes Graph

        H = 13.7  G = 0.15

---------------------------------------------------------------------

The orbital elements are published on M.P.E.C. 2020-H67.
The charts are made with StellaNavigator Ver.10 (AstroArts).
The magnitudes graphs are made with Comet for Windows.

---------------------------------------------------------------------

Copyright(C) Seiichi Yoshida (comet@aerith.net). All rights reserved.